This demonstration page uses our WeatherBlox Daily Observations layout. Learn more.

Left ArrowRight Arrow

39.08367, -84.50855

Hourly Observations for April 26, 2020

Temp ( °F °C ) Dew Point ( °F °C ) Humidity (%) Winds ( mph kmh ) Pressure ( in mb ) Visibility ( mi km ) Precip ( " mm )
12:01 am 00:01 Cloudy with Light Rain 55 12.8 55 12.8 100 100 Calm 29.71 1006 5 8 0.01 0.25
12:08 am 00:08 Cloudy with Light Rain 56 13.3 55 12.8 97 97 Calm 29.71 1006 7 11 0.01 0.25
12:27 am 00:27 Cloudy with Light Rain 55 12.8 55 12.8 100 100 Calm 29.70 1006 7 11 0.02 0.51
12:53 am 00:53 Cloudy with Light Rain 55 12.8 55 12.8 100 100 Calm 29.70 1006 4 6 0.03 0.76
1:14 am 01:14 Cloudy with Light Rain 56 13.3 55 12.8 97 97 Calm 29.70 1006 6 10 0.00 0.00
1:22 am 01:22 Cloudy with Light Rain 55 12.8 55 12.8 100 100 Calm 29.70 1006 2 3 0.00 0.00
1:29 am 01:29 Cloudy with Light Rain 55 12.8 55 12.8 100 100 NNE 3 6 29.70 1006 3 5 0.00 0.00
1:53 am 01:53 Cloudy with Light Rain 56 13.3 55 12.8 97 97 N 3 6 29.69 1005 10 16 0.00 0.00
2:06 am 02:06 Cloudy with Light Rain 56 13.3 54 12.2 93 93 N 6 9 29.69 1005 10 16 0.00 0.00
2:18 am 02:18 Cloudy with Light Rain 54 12.2 53 11.7 97 97 NNW 10 17 29.69 1006 7 11 0.01 0.25
2:53 am 02:53 Cloudy with Light Rain 53 11.7 51 10.6 93 93 N 10 17 29.68 1005 5 8 0.01 0.25
3:14 am 03:14 Cloudy with Light Rain 52 11.1 50 10 93 93 N 7 11 29.70 1006 5 8 0.01 0.25
3:53 am 03:53 Cloudy with Light Rain 52 11.1 50 10 93 93 N 6 9 29.69 1005 5 8 0.05 1.27
4:27 am 04:27 Cloudy with Light Rain 50 10 48 8.9 93 93 N 12 19 29.71 1006 7 11 0.03 0.76
4:53 am 04:53 Cloudy with Light Rain 50 10 48 8.9 93 93 N 8 13 29.71 1006 7 11 0.05 1.27
5:53 am 05:53 Cloudy with Light Rain 48 8.9 45 7.2 89 89 NNW 12 19 29.72 1007 10 16 0.02 0.51
6:53 am 06:53 Cloudy 48 8.9 45 7.2 89 89 N 5 7 29.74 1007 10 16 0.01 0.25
7:39 am 07:39 Cloudy with Light Rain 47 8.3 45 7.2 93 93 NNW 8 13 29.77 1008 2 3 0.02 0.51
7:49 am 07:49 Cloudy with Light Rain 46 8 45 7 93 93 NW 7 11 29.77 1008 3 5 0.03 0.76
7:53 am 07:53 Cloudy with Light Rain 47 8.3 45 7.2 93 93 VRB 6 9 29.76 1008 3 5 0.03 0.76
8:53 am 08:53 Cloudy with Light Rain 46 7.8 43 6.1 89 89 NNW 13 20 29.78 1009 10 16 0.00 0.00
9:53 am 09:53 Cloudy 46 7.8 43 6.1 89 89 N 12 19 29.80 1009 10 16 0.01 0.25
10:53 am 10:53 Cloudy with Light Rain 46 7.8 44 6.7 93 93 NW 10 17 29.81 1010 4 6 0.00 0.00
11:53 am 11:53 Cloudy with Light Rain 47 8.3 44 6.7 90 90 NNW 10 17 29.83 1010 10 16 0.02 0.51
12:53 pm 12:53 Cloudy with Light Rain 48 8.9 44 6.7 86 86 NNW 14 22 29.85 1011 7 11 0.00 0.00
1:53 pm 13:53 Cloudy with Light Rain 50 10 46 7.8 86 86 NNW 14 22 29.86 1011 6 10 0.03 0.76
2:53 pm 14:53 Cloudy with Light Rain 51 10.6 46 7.8 83 83 NNW 18 30 29.89 1012 7 11 0.04 1.02
3:53 pm 15:53 Cloudy with Rain 51 10.6 45 7.2 80 80 NNW 15 24 29.92 1013 6 10 0.05 1.27
4:53 pm 16:53 Cloudy with Light Rain 51 10.6 45 7.2 80 80 NNW 15 24 29.95 1014 7 11 0.03 0.76
5:53 pm 17:53 Cloudy 53 11.7 44 6.7 72 72 N 14 22 29.99 1016 10 16 0.00 0.00
6:53 pm 18:53 Cloudy 54 12.2 43 6.1 67 67 N 9 15 30.02 1017 10 16 0.00 0.00
7:53 pm 19:53 Sunny 54 12.2 42 5.6 64 64 N 7 11 30.04 1017 10 16 0.00 0.00
8:53 pm 20:53 Clear 48 8.9 44 6.7 86 86 Calm 30.07 1018 10 16 0.00 0.00
9:53 pm 21:53 Clear with Mist and Fog 43 6.1 42 5.6 97 97 S 3 6 30.10 1019 3 5 0.00 0.00
10:53 pm 22:53 Mostly Cloudy with Mist and Fog 42 5.6 42 5.6 100 100 Calm 30.13 1020 4 6 0.00 0.00
11:00 pm 23:00 Cloudy with Mist and Fog 42 5.6 41 5 96 96 Calm 30.15 1021 1 2 0.00 0.00
11:17 pm 23:17 Cloudy with Fog 42 5.6 42 5.6 100 100 Calm 30.15 1021 1 1 0.00 0.00
11:31 pm 23:31 Mostly Cloudy with Mist and Fog 42 5.6 41 5 96 96 Calm 30.16 1021 2 3 0.00 0.00
11:43 pm 23:43 Mostly Cloudy with Mist and Fog 42 5.6 41 5 96 96 Calm 30.16 1021 1 2 0.00 0.00
11:53 pm 23:53 Mostly Clear with Mist and Fog 42 5.6 42 5.6 100 100 Calm 30.14 1021 3 4 0.00 0.00
11:58 pm 23:58 Clear with Mist and Fog 41 5 41 5 100 100 Calm 30.16 1021 1 1 0.00 0.00

Powered by AerisWeather